Bowling Green, Kentucky, United States (42101)
Lat: 36.99N, Lon: 86.44W
Wx Zone: KYZ071
Local Info
Past Weather Observations for Friday, August 28, 2015

NOTE: This archive is for the closest National Weather Service station to Bowling Green. Information may differ from the station used for current weather conditions.

Click here for Long-term Archive

Time Weather Temperature Dewpoint Humidity Pressure Winds Precip Visibility
23:55
Clear
72°F / 22°C 64°F / 18°C 78% 30.12 in
(1020 mb)
Calm - 10SM
23:35
Clear
68°F / 20°C 66°F / 19°C 94% 30.12 in
(1020 mb)
SSE 3.5 mph
(SSE 6 kph)
- 10SM
23:15
Clear
68°F / 20°C 68°F / 20°C 100% 30.12 in
(1020 mb)
Calm - 10SM
22:55
Clear
68°F / 20°C 68°F / 20°C 100% 30.12 in
(1020 mb)
Calm - 10SM
22:35
Clear
68°F / 20°C 68°F / 20°C 100% 30.12 in
(1020 mb)
Calm - 10SM
22:15
Clear
68°F / 20°C 64°F / 18°C 88% 30.12 in
(1020 mb)
Calm - 10SM
21:55
Clear
70°F / 21°C 64°F / 18°C 83% 30.12 in
(1020 mb)
Calm - 10SM
21:35
Clear
70°F / 21°C 64°F / 18°C 83% 30.12 in
(1020 mb)
Calm - 10SM
21:15
Clear
70°F / 21°C 64°F / 18°C 83% 30.12 in
(1020 mb)
E 3.5 mph
(E 6 kph)
- 10SM
20:55
Clear
70°F / 21°C 64°F / 18°C 83% 30.12 in
(1020 mb)
E 4.6 mph
(E 7 kph)
- 10SM
20:35
Clear
70°F / 21°C 64°F / 18°C 83% 30.12 in
(1020 mb)
E 3.5 mph
(E 6 kph)
- 10SM
20:15
Clear
70°F / 21°C 64°F / 18°C 83% 30.12 in
(1020 mb)
E 3.5 mph
(E 6 kph)
- 10SM
19:55
Clear
72°F / 22°C 66°F / 19°C 83% 30.09 in
(1019 mb)
E 4.6 mph
(E 7 kph)
- 10SM
19:35
Clear
72°F / 22°C 66°F / 19°C 83% 30.09 in
(1019 mb)
E 5.8 mph
(E 9 kph)
- 10SM
19:15
Clear
72°F / 22°C 66°F / 19°C 83% 30.09 in
(1019 mb)
E 4.6 mph
(E 7 kph)
- 10SM
18:55
Clear
73°F / 23°C 66°F / 19°C 78% 30.09 in
(1019 mb)
ENE 3.5 mph
(ENE 6 kph)
- 10SM
18:35
Clear
73°F / 23°C 64°F / 18°C 74% 30.09 in
(1019 mb)
E 4.6 mph
(E 7 kph)
- 10SM
18:15
Clear
75°F / 24°C 64°F / 18°C 69% 30.06 in
(1018 mb)
E 3.5 mph
(E 6 kph)
- 10SM
17:55
Clear
77°F / 25°C 64°F / 18°C 65% 30.06 in
(1018 mb)
Calm - 10SM
17:35
Partly Cloudy
81°F / 27°C 64°F / 18°C 58% 30.06 in
(1018 mb)
E 4.6 mph
(E 7 kph)
- 10SM
17:15
Mostly Cloudy
82°F / 28°C 64°F / 18°C 55% 30.06 in
(1018 mb)
ENE 4.6 mph
(ENE 7 kph)
- 10SM
16:55
Mostly Cloudy
84°F / 29°C 64°F / 18°C 51% 30.06 in
(1018 mb)
E 6.9 mph
(E 11 kph)
- 10SM
16:35
Partly Cloudy
86°F / 30°C 59°F / 15°C 40% 30.06 in
(1018 mb)
Calm - 10SM
16:15
Clear
84°F / 29°C 59°F / 15°C 43% 30.06 in
(1018 mb)
Calm - 10SM
15:55
Clear
86°F / 30°C 61°F / 16°C 43% 30.06 in
(1018 mb)
SSE 4.6 mph
(SSE 7 kph)
- 10SM
15:35
Clear
86°F / 30°C 61°F / 16°C 43% 30.06 in
(1018 mb)
S 5.8 mph
(S 9 kph)
- 10SM
15:15
Clear
86°F / 30°C 61°F / 16°C 43% 30.06 in
(1018 mb)
S 5.8 mph
(S 9 kph)
- 10SM
14:55
Clear
84°F / 29°C 61°F / 16°C 45% 30.06 in
(1018 mb)
SSE 3.5 mph
(SSE 6 kph)
- 10SM
14:35
Partly Cloudy
86°F / 30°C 61°F / 16°C 43% 30.09 in
(1019 mb)
SE 4.6 mph
(SE 7 kph)
- 10SM
14:15
Partly Cloudy
86°F / 30°C 61°F / 16°C 43% 30.09 in
(1019 mb)
SE 4.6 mph
(SE 7 kph)
- 10SM
13:55
Partly Cloudy
86°F / 30°C 61°F / 16°C 43% 30.09 in
(1019 mb)
Calm - 10SM
13:35
Partly Cloudy
84°F / 29°C 63°F / 17°C 48% 30.12 in
(1020 mb)
ESE 5.8 mph
(ESE 9 kph)
- 10SM
13:15
Clear
82°F / 28°C 63°F / 17°C 51% 30.12 in
(1020 mb)
S 3.5 mph
(S 6 kph)
- 10SM
12:55
Partly Cloudy
84°F / 29°C 63°F / 17°C 48% 30.12 in
(1020 mb)
SSW 5.8 mph
(SSW 9 kph)
- 10SM
12:35
Mostly Cloudy
84°F / 29°C 63°F / 17°C 48% 30.12 in
(1020 mb)
SW 6.9 mph
(SW 11 kph)
- 10SM
12:15
Partly Cloudy
82°F / 28°C 63°F / 17°C 51% 30.12 in
(1020 mb)
Calm - 10SM
11:55
Mostly Cloudy
84°F / 29°C 64°F / 18°C 51% 30.12 in
(1020 mb)
SW 8.1 mph
(SW 13 kph)
- 10SM
11:35
Partly Cloudy
81°F / 27°C 63°F / 17°C 54% 30.15 in
(1021 mb)
SW 3.5 mph
(SW 6 kph)
- 10SM
11:15
Mostly Cloudy
82°F / 28°C 61°F / 16°C 48% 30.15 in
(1021 mb)
Calm - 10SM
10:55
Partly Cloudy
82°F / 28°C 61°F / 16°C 48% 30.15 in
(1021 mb)
Calm - 10SM
10:35
Clear
81°F / 27°C 61°F / 16°C 51% 30.15 in
(1021 mb)
E 3.5 mph
(E 6 kph)
- 10SM
10:15
Clear
79°F / 26°C 63°F / 17°C 58% 30.15 in
(1021 mb)
Calm - 10SM
09:55
Clear
77°F / 25°C 63°F / 17°C 61% 30.15 in
(1021 mb)
E 5.8 mph
(E 9 kph)
- 10SM
09:35
Clear
75°F / 24°C 61°F / 16°C 61% 30.18 in
(1022 mb)
E 3.5 mph
(E 6 kph)
- 10SM
09:15
Clear
73°F / 23°C 61°F / 16°C 65% 30.18 in
(1022 mb)
E 3.5 mph
(E 6 kph)
- 10SM
08:55
Clear
72°F / 22°C 61°F / 16°C 69% 30.18 in
(1022 mb)
E 3.5 mph
(E 6 kph)
- 10SM
08:35
Clear
70°F / 21°C 59°F / 15°C 69% 30.18 in
(1022 mb)
ENE 4.6 mph
(ENE 7 kph)
- 10SM
08:15
Clear
68°F / 20°C 59°F / 15°C 73% 30.18 in
(1022 mb)
ENE 3.5 mph
(ENE 6 kph)
- 10SM
07:55
Clear
66°F / 19°C 59°F / 15°C 78% 30.18 in
(1022 mb)
ENE 4.6 mph
(ENE 7 kph)
- 10SM
07:35
Partly Cloudy
63°F / 17°C 59°F / 15°C 88% 30.18 in
(1022 mb)
NE 5.8 mph
(NE 9 kph)
- 10SM
07:15
Partly Cloudy
63°F / 17°C 59°F / 15°C 88% 30.15 in
(1021 mb)
NE 3.5 mph
(NE 6 kph)
- 10SM
06:55
Mostly Cloudy
61°F / 16°C 59°F / 15°C 94% 30.15 in
(1021 mb)
NE 5.8 mph
(NE 9 kph)
- 10SM
06:35
Partly Cloudy
61°F / 16°C 59°F / 15°C 94% 30.15 in
(1021 mb)
ENE 3.5 mph
(ENE 6 kph)
- 10SM
06:15
Clear
59°F / 15°C 59°F / 15°C 100% 30.15 in
(1021 mb)
ENE 4.6 mph
(ENE 7 kph)
- 10SM
05:55
Clear
57°F / 14°C 57°F / 14°C 100% 30.15 in
(1021 mb)
NE 3.5 mph
(NE 6 kph)
- 10SM
05:35
Clear
55°F / 13°C 55°F / 13°C 100% 30.15 in
(1021 mb)
Calm - 10SM
05:15
Clear
55°F / 13°C 55°F / 13°C 100% 30.12 in
(1020 mb)
E 4.6 mph
(E 7 kph)
- 10SM
04:55
Clear
55°F / 13°C 55°F / 13°C 100% 30.15 in
(1021 mb)
NNE 3.5 mph
(NNE 6 kph)
- 10SM
04:35
Clear
55°F / 13°C 55°F / 13°C 100% 30.12 in
(1020 mb)
N 3.5 mph
(N 6 kph)
- 10SM
04:15
Clear
55°F / 13°C 55°F / 13°C 100% 30.12 in
(1020 mb)
ENE 3.5 mph
(ENE 6 kph)
- 10SM
03:55
Clear
55°F / 13°C 55°F / 13°C 100% 30.12 in
(1020 mb)
Calm - 10SM
03:35
Clear
57°F / 14°C 57°F / 14°C 100% 30.12 in
(1020 mb)
Calm - 10SM
03:15
Clear
57°F / 14°C 57°F / 14°C 100% 30.12 in
(1020 mb)
Calm - 10SM
02:55
Clear
57°F / 14°C 57°F / 14°C 100% 30.09 in
(1019 mb)
Calm - 10SM
02:35
Clear
57°F / 14°C 57°F / 14°C 100% 30.09 in
(1019 mb)
Calm - 10SM
02:15
Clear
57°F / 14°C 57°F / 14°C 100% 30.09 in
(1019 mb)
Calm - 10SM
01:55
Clear
57°F / 14°C 57°F / 14°C 100% 30.09 in
(1019 mb)
Calm - 10SM
01:35
Clear
55°F / 13°C 55°F / 13°C 100% 30.12 in
(1020 mb)
Calm - 10SM
01:15
Clear
57°F / 14°C 57°F / 14°C 100% 30.12 in
(1020 mb)
Calm - 10SM
00:55
Clear
57°F / 14°C 57°F / 14°C 100% 30.12 in
(1020 mb)
Calm - 10SM
00:35
Clear
57°F / 14°C 55°F / 13°C 94% 30.12 in
(1020 mb)
Calm - 10SM
00:15
Clear
59°F / 15°C 55°F / 13°C 88% 30.12 in
(1020 mb)
Calm - 10SM
Time Weather Temperature Dewpoint Humidity Pressure Winds Precip Visibility


Weather for websites

WeatherForYou.com, LLC is not responsible for any damages or problems caused by this service. Current weather conditions are obtained from the closest station including government and personal stations which may have varying degrees of accuracy. Weather forecasts are derived from the NOAA NDFD. Like all things, this site belongs to Jesus Christ... He just trusts us to maintain it. If you have any questions or comments email webmaster@weatherforyou.com

Copyright © 2015, WeatherForYou.com LLC. All rights reserved.